Weather History for Tallahassee, FL

Change the Weather History Date:

Monday, January 14, 2013

  Actual Average Record
Temperature  
Mean Temperature 71 °F 51 °F  
Max Temperature 81 °F 63 °F 83 °F (1932)
Min Temperature 61 °F 39 °F 18 °F (1973)
Degree Days  
Heating Degree Days 0    
Month to date heating degree days  
Since 1 July heating degree days  
Cooling Degree Days 6    
Month to date cooling degree days  
Year to date cooling degree days  
Growing Degree Days 20 (Base 50)    
Moisture  
Dew Point 60 °F    
Average Humidity 83    
Maximum Humidity 96    
Minimum Humidity 40    
Precipitation  
Precipitation 0.00 in 0.14 in 2.16 in (1977)
Month to date precipitation 0.43 1.79  
Year to date precipitation 0.43 1.79  
Sea Level Pressure  
Sea Level Pressure 30.12 in    
Wind  
Wind Speed 3 mph (SSE)    
Max Wind Speed 16 mph    
Max Gust Speed 22 mph    
Visibility 6 miles    
Events Fog    
T = Trace of Precipitation, MM = Missing Value Source: NWS Daily Summary

Daily Weather History Graph

Daily Weather History Graph

Search for Another Location

Airport:

Trip Planner

Search our weather history database for the weather conditions in past years. The results will help you decide how hot, cold, wet, or windy it might be!

Date:

Astronomy

Jan. 14, 2013 Rise Set
Actual Time 7:34 AM EST 5:58 PM EST
Civil Twilight 7:08 AM EST 6:24 PM EST
Nautical Twilight 6:39 AM EST 6:53 PM EST
Astronomical Twilight 6:10 AM EST 7:22 PM EST
Moon 9:24 AM EST (1/14) 9:24 PM EST (1/14)
Length of Visible Light 11h 15m
Length of Day
10h 23m
Waxing Crescent, 11% of the Moon is Illuminated
Jan 14
Waxing Crescent
Jan 18
First Quarter
Jan 26
Full
Feb 3
Last Quarter
Feb 10
New

Hourly Weather History & Observations

Time (EST) Temp. Heat Index Dew Point Humidity Pressure Visibility Wind Dir Wind Speed Gust Speed Precip Events Conditions
12:53 AM 62.1 °F - 60.1 °F 93% 30.12 in 9.0 mi Calm Calm - N/A   Partly Cloudy
1:14 AM 62.6 °F - 60.8 °F 94% 30.12 in 1.5 mi ESE 4.6 mph - N/A   Partly Cloudy
1:19 AM 62.6 °F - 60.8 °F 94% 30.12 in 0.8 mi SE 4.6 mph - N/A   Mist
1:24 AM 60.8 °F - 59.0 °F 94% 30.11 in 1.2 mi SE 3.5 mph - N/A   Scattered Clouds
1:29 AM 60.8 °F - 59.0 °F 94% 30.11 in 4.0 mi SE 3.5 mph - N/A   Partly Cloudy
1:44 AM 62.6 °F - 60.8 °F 94% 30.11 in 1.5 mi Calm Calm - N/A   Scattered Clouds
1:49 AM 60.8 °F - 59.0 °F 94% 30.11 in 0.8 mi Calm Calm - N/A   Mist
1:53 AM 62.1 °F - 60.1 °F 93% 30.11 in 1.0 mi Calm Calm - N/A   Mist
1:59 AM 60.8 °F - 59.0 °F 94% 30.11 in 2.0 mi Calm Calm - N/A   Mostly Cloudy
2:03 AM 60.8 °F - 59.0 °F 94% 30.11 in 4.0 mi Calm Calm - N/A   Mostly Cloudy
2:12 AM 62.6 °F - 59.0 °F 88% 30.10 in 4.0 mi Calm Calm - N/A   Overcast
2:18 AM 62.6 °F - 60.8 °F 94% 30.10 in 1.8 mi Calm Calm - N/A   Overcast
2:25 AM 60.8 °F - 59.0 °F 94% 30.10 in 2.0 mi Calm Calm - N/A   Overcast
2:34 AM 62.6 °F - 59.0 °F 88% 30.11 in 9.0 mi NNW 3.5 mph - N/A   Overcast
2:53 AM 62.1 °F - 60.1 °F 93% 30.10 in 2.0 mi Calm Calm - N/A   Overcast
3:00 AM 60.8 °F - 59.0 °F 94% 30.10 in 0.8 mi Calm Calm - N/A   Mist
3:53 AM 61.0 °F - 59.0 °F 93% 30.10 in 0.8 mi SE 4.6 mph - N/A   Mist
4:02 AM 62.6 °F - 60.8 °F 94% 30.10 in 1.5 mi ESE 3.5 mph - N/A   Overcast
4:26 AM 64.4 °F - 62.6 °F 94% 30.09 in 0.2 mi Calm Calm - N/A Fog Fog
4:53 AM 64.0 °F - 63.0 °F 96% 30.09 in 0.2 mi Calm Calm - N/A Fog Fog
5:53 AM 64.9 °F - 63.0 °F 93% 30.11 in 0.8 mi Calm Calm - N/A   Mist
6:29 AM 64.4 °F - 62.6 °F 94% 30.11 in 1.2 mi Calm Calm - N/A   Overcast
6:53 AM 64.9 °F - 63.0 °F 93% 30.12 in 3.0 mi Calm Calm - N/A   Overcast
7:53 AM 63.0 °F - 61.0 °F 93% 30.14 in 6.0 mi Calm Calm - N/A   Scattered Clouds
8:53 AM 64.0 °F - 62.1 °F 93% 30.17 in 10.0 mi SSE 3.5 mph - N/A   Scattered Clouds
9:00 AM 64.4 °F - 62.6 °F 94% 30.17 in 10.0 mi SSE 3.5 mph - N/A   Scattered Clouds
9:53 AM 70.0 °F - 63.0 °F 78% 30.18 in 10.0 mi SSE 5.8 mph - N/A   Partly Cloudy
10:53 AM 75.0 °F - 62.1 °F 64% 30.17 in 10.0 mi South 13.8 mph 21.9 mph N/A   Partly Cloudy
11:53 AM 78.1 °F - 62.1 °F 58% 30.14 in 10.0 mi South 9.2 mph 18.4 mph N/A   Partly Cloudy
12:53 PM 80.1 °F 80.9 °F 60.1 °F 50% 30.11 in 10.0 mi South 15.0 mph 20.7 mph N/A   Scattered Clouds
1:53 PM 80.1 °F 80.7 °F 59.0 °F 48% 30.11 in 10.0 mi South 16.1 mph 21.9 mph N/A   Partly Cloudy
2:53 PM 79.0 °F - 57.9 °F 48% 30.10 in 10.0 mi SSE 11.5 mph - N/A   Partly Cloudy
3:53 PM 78.1 °F - 57.0 °F 48% 30.12 in 10.0 mi SSE 10.4 mph - N/A   Partly Cloudy
4:53 PM 75.2 °F - 57.2 °F 53% 30.14 in 10.0 mi SSE 10.4 mph - N/A   Clear
5:53 PM 71.6 °F - 59.0 °F 64% 30.15 in 10.0 mi SSE 9.2 mph - N/A   Partly Cloudy
6:53 PM 68.0 °F - 61.0 °F 78% 30.16 in 10.0 mi SE 5.8 mph - N/A   Clear
7:53 PM 66.0 °F - 60.1 °F 81% 30.16 in 10.0 mi Calm Calm - N/A   Clear
8:53 PM 64.0 °F - 60.1 °F 87% 30.14 in 10.0 mi Calm Calm - N/A   Clear
9:53 PM 63.0 °F - 59.0 °F 87% 30.14 in 10.0 mi Calm Calm - N/A   Clear
10:53 PM 60.1 °F - 57.0 °F 90% 30.13 in 9.0 mi Calm Calm - N/A   Clear
11:53 PM 60.1 °F - 57.0 °F 90% 30.13 in 9.0 mi East 3.5 mph - N/A   Clear